TimeCST,TemperatureF,Dew PointF,Humidity,Sea Level PressureIn,VisibilityMPH,Wind Direction,Wind SpeedMPH,Gust SpeedMPH,PrecipitationIn,Events,Conditions,WindDirDegrees,DateUTC
12:55 AM,50.0,46.4,87,30.02,10.0,North,8.1,-,N/A,,Clear,350,1998-01-19 06:55:00
1:55 AM,50.0,46.4,87,30.03,10.0,North,6.9,-,N/A,,Clear,360,1998-01-19 07:55:00
2:55 AM,48.2,44.6,87,30.05,7.0,North,8.1,-,N/A,,Overcast,10,1998-01-19 08:55:00
3:50 AM,48.2,44.6,87,30.06,10.0,NNE,10.4,-,N/A,,Overcast,20,1998-01-19 09:50:00
4:50 AM,48.2,44.6,87,30.07,10.0,NNE,6.9,-,N/A,,Overcast,20,1998-01-19 10:50:00
5:50 AM,46.4,42.8,87,30.07,10.0,NNE,6.9,-,N/A,,Overcast,30,1998-01-19 11:50:00
6:50 AM,46.4,41.0,81,30.12,10.0,NNE,9.2,-,N/A,,Overcast,20,1998-01-19 12:50:00
7:45 AM,46.4,39.2,76,30.14,10.0,North,8.1,-,N/A,,Overcast,10,1998-01-19 13:45:00
8:50 AM,46.4,39.2,76,30.19,10.0,ESE,11.5,-,N/A,,Overcast,120,1998-01-19 14:50:00
9:50 AM,46.4,39.2,76,30.21,10.0,WSW,13.8,-,N/A,,Overcast,240,1998-01-19 15:50:00
10:47 AM,48.2,39.2,71,30.22,10.0,WSW,13.8,-,N/A,,Overcast,240,1998-01-19 16:47:00
11:55 AM,48.2,39.2,71,30.20,10.0,North,5.8,-,N/A,,Overcast,10,1998-01-19 17:55:00
12:50 PM,50.0,39.2,66,30.18,10.0,ENE,4.6,-,N/A,,Overcast,70,1998-01-19 18:50:00
1:50 PM,51.8,39.2,62,30.14,10.0,NNE,6.9,-,N/A,,Overcast,30,1998-01-19 19:50:00
2:47 PM,51.8,39.2,62,30.11,10.0,NNE,8.1,-,N/A,,Mostly Cloudy,20,1998-01-19 20:47:00
3:47 PM,51.8,39.2,62,30.12,10.0,NNE,5.8,-,N/A,,Mostly Cloudy,30,1998-01-19 21:47:00
4:47 PM,51.8,39.2,62,30.11,10.0,NE,3.5,-,N/A,,Mostly Cloudy,40,1998-01-19 22:47:00
5:47 PM,48.2,39.2,71,30.10,10.0,NE,6.9,-,N/A,,Partly Cloudy,40,1998-01-19 23:47:00
6:49 PM,44.6,39.2,81,30.09,10.0,East,4.6,-,N/A,,Clear,90,1998-01-20 00:49:00
7:50 PM,44.6,39.2,81,30.11,10.0,ENE,5.8,-,N/A,,Clear,70,1998-01-20 01:50:00
8:50 PM,42.8,37.4,81,30.11,10.0,ESE,6.9,-,N/A,,Clear,120,1998-01-20 02:50:00
9:50 PM,41.0,37.4,87,30.11,10.0,ESE,5.8,-,N/A,,Clear,120,1998-01-20 03:50:00
10:50 PM,41.0,37.4,87,30.11,10.0,ESE,4.6,-,N/A,,Clear,110,1998-01-20 04:50:00
11:45 PM,41.0,37.4,87,30.10,10.0,East,4.6,-,N/A,,Clear,80,1998-01-20 05:45:00